Home > Weather > Nuremberg > Past weeks

Flag for Germany Past Weather in Nuremberg, Bavaria, Germany — Yesterday and Last 2 Weeks

Now
57 °F

Partly cloudy.


Feels Like: 56 °F
Forecast: 52 / 70 °F
Wind: 7 mph from South

Location: Nuernberg

Current Time: May 30, 2016 at 5:10:35 AM

Latest Report: May 30, 2016 at 4:20 AM


Visibility: N/A

Pressure: 29.62 "Hg

Humidity: 94%

Dew Point: 55 °F

Location of NurembergLocation

Past Weather in Nuremberg — Graph

°F

Nuremberg Temperature Yesterday

Maximum temperature yesterday: 75 °F (at 2:20 PM)
Minimum temperature yesterday: 55 °F (at 3:50 AM)
Average temperature yesterday: 65 °F

High & Low Weather Summary for the Past Weeks

 TemperatureHumidityPressure
High84 °F (May 22, 2:20 PM)100% (May 24, 11:20 AM)30.15 "Hg (May 24, 11:20 AM)
Low41 °F (May 15, 5:20 AM)23% (May 22, 5:20 PM)29.56 "Hg (May 29, 8:20 PM)
Average57 °F73%29.95 "Hg
* Reported May 15 3:20 AM — May 30 3:50 AM, Nuremberg, Weather by CustomWeather, © 2016

Note: Actual official high and low records may vary slightly from our data, if they occured in-between our weather recording intervals... More about our weather records

Advertising

Nuremberg Weather History for the Previous 24 Hours

Scroll right to see more
 ConditionsComfort  
Time TempWeatherWind HumidityBarometerVisibility
3:50 AM
Mon, May 30
59 °FPassing clouds.9 mph94%29.62 "Hg5 mi
3:20 AM59 °FPassing clouds.5 mph94%29.62 "Hg4 mi
2:50 AM59 °FPartly cloudy.6 mph94%29.62 "HgN/A
2:20 AM59 °FPartly cloudy.6 mph94%29.62 "HgN/A
1:50 AM59 °FPartly cloudy.7 mph94%29.62 "HgN/A
1:20 AM59 °FPartly cloudy.7 mph94%29.62 "HgN/A
12:50 AM57 °FPartly cloudy.7 mph100%29.62 "HgN/A
12:20 AM59 °FLight rain. Partly cloudy.2 mph94%29.62 "HgN/A
11:50 PM
Sun, May 29
59 °FRain showers. Passing clouds.2 mph94%29.62 "HgN/A
11:20 PM59 °FThundershowers. Passing clouds.5 mph94%29.65 "Hg5 mi
10:50 PM59 °FThunderstorms. Partly cloudy.14 mph94%29.62 "Hg6 mi
10:20 PM59 °FThunderstorms. Passing clouds.3 mph94%29.62 "Hg5 mi
9:50 PM59 °FThunderstorms. Partly sunny.6 mph94%29.62 "Hg3 mi
9:20 PM64 °FThundershowers. Partly sunny.15 mph73%29.62 "HgN/A
8:50 PM70 °FBroken clouds.6 mph69%29.56 "HgN/A
8:20 PM72 °FBroken clouds.5 mph65%29.56 "HgN/A
7:50 PM72 °FPartly sunny.2 mph61%29.59 "HgN/A
7:20 PM72 °FPartly sunny.5 mph65%29.59 "HgN/A
6:50 PM73 °FPartly sunny.5 mph69%29.59 "HgN/A
6:20 PM73 °FBroken clouds.5 mph69%29.62 "HgN/A
5:50 PM73 °FPartly sunny.5 mph69%29.62 "HgN/A
5:20 PM73 °FPartly sunny.5 mph65%29.62 "HgN/A
4:50 PM75 °FPartly sunny.7 mph61%29.62 "HgN/A
4:20 PM75 °FPartly sunny.8 mph57%29.65 "HgN/A
3:50 PM75 °FPartly sunny.7 mph54%29.65 "HgN/A
3:20 PM75 °FPartly sunny.7 mph54%29.68 "HgN/A
2:50 PM75 °FBroken clouds.7 mph57%29.68 "HgN/A
2:20 PM75 °FPartly sunny.7 mph61%29.68 "HgN/A
1:50 PM73 °FBroken clouds.6 mph65%29.68 "HgN/A
1:20 PM73 °FPartly sunny.6 mph65%29.71 "HgN/A
12:50 PM72 °FBroken clouds.7 mph69%29.71 "HgN/A
12:20 PM72 °FBroken clouds.10 mph69%29.71 "HgN/A
11:50 AM68 °FBroken clouds.9 mph78%29.71 "HgN/A
11:20 AM66 °FBroken clouds.7 mph83%29.74 "HgN/A
10:50 AM63 °FBroken clouds.5 mph94%29.74 "HgN/A
10:20 AM61 °FBroken clouds.8 mph94%29.74 "Hg6 mi
9:50 AM59 °FSprinkles. Partly sunny.6 mph94%29.71 "Hg6 mi
9:20 AM59 °FSprinkles. Broken clouds.6 mph94%29.74 "HgN/A
8:50 AM59 °FSprinkles. Broken clouds.3 mph94%29.77 "HgN/A
8:20 AM61 °FBroken clouds.6 mph88%29.77 "HgN/A
7:50 AM59 °FPartly sunny.5 mph94%29.77 "HgN/A
7:20 AM59 °FBroken clouds.2 mph94%29.77 "HgN/A
6:50 AM57 °FBroken clouds.6 mph100%29.74 "HgN/A
6:20 AM55 °FSprinkles. Broken clouds.2 mph100%29.74 "HgN/A
5:50 AM55 °FFog.1 mph100%29.74 "HgN/A
5:20 AM55 °FFog.1 mph94%29.74 "HgN/A
Weather by CustomWeather, © 2016

See weather overviewHow to use our weather pages